TimeEDT,TemperatureF,Dew PointF,Humidity,Sea Level PressureIn,VisibilityMPH,Wind Direction,Wind SpeedMPH,Gust SpeedMPH,PrecipitationIn,Events,Conditions,WindDirDegrees,DateUTC
12:00 AM,-0.4,-5.8,78,29.96,9.0,Calm,Calm,-,N/A,Snow,Light Snow,0,2013-05-11 04:00:00
12:05 AM,-2.2,-5.8,85,29.96,9.0,Calm,Calm,-,N/A,Snow,Light Snow,0,2013-05-11 04:05:00
1:00 AM,-5.8,-9.4,84,29.96,9.0,East,4.6,-,N/A,Snow,Light Snow,90,2013-05-11 05:00:00
2:00 AM,-6,-10,75,29.97,10,ENE,2.3,,,Snow,Light Snow,70,2013-05-11 06:00:00
2:00 AM,-5.8,-9.4,84,29.96,9.0,East,2.3,-,N/A,Snow,Light Snow,80,2013-05-11 06:00:00
3:00 AM,-9.4,-13.0,84,29.97,9.0,ESE,2.3,-,N/A,Snow,Light Snow,120,2013-05-11 07:00:00
4:00 AM,-7.6,-13.0,77,29.98,9.0,SSE,4.6,-,N/A,Snow,Light Snow,150,2013-05-11 08:00:00
5:00 AM,-6,-10,71,29.98,10,SSE,6.9,,,Snow,Light Snow,150,2013-05-11 09:00:00
5:00 AM,-5.8,-11.2,77,29.97,9.0,SSE,6.9,-,N/A,Snow,Light Snow,150,2013-05-11 09:00:00
6:00 AM,-5.8,-11.2,77,29.98,9.0,SSE,9.2,-,N/A,Snow,Light Snow,150,2013-05-11 10:00:00
7:00 AM,-4.0,-11.2,71,29.99,9.0,SSE,9.2,-,N/A,Snow,Light Snow,150,2013-05-11 11:00:00
7:50 AM,-4.0,-11.2,71,29.99,9.0,WSW,4.6,-,N/A,Snow,Light Snow,250,2013-05-11 11:50:00
8:00 AM,-5,-11,62,30.00,6,SW,5.8,,,Snow,Light Snow,230,2013-05-11 12:00:00
8:00 AM,-4.0,-11.2,71,30.00,6.0,WSW,6.9,-,N/A,Snow,Light Snow,250,2013-05-11 12:00:00
8:01 AM,-4.0,-11.2,71,30.00,5.0,WSW,6.9,-,N/A,Snow,Light Snow,250,2013-05-11 12:01:00
8:16 AM,-4.0,-11.2,71,30.00,6.0,SW,5.8,-,N/A,Snow,Light Snow,220,2013-05-11 12:16:00
9:00 AM,-4.0,-9.4,78,30.00,8.0,SSW,3.5,-,N/A,Snow,Light Snow,210,2013-05-11 13:00:00
10:00 AM,-2.2,-7.6,78,29.99,9.0,South,4.6,-,N/A,Snow,Light Snow,190,2013-05-11 14:00:00
10:31 AM,-0.4,-7.6,72,29.99,9.0,SSE,3.5,-,N/A,,Clear,160,2013-05-11 14:31:00
10:34 AM,-0.4,-7.6,72,29.99,9.0,South,3.5,-,N/A,Snow,Light Snow,180,2013-05-11 14:34:00
10:56 AM,-0.4,-7.6,72,29.99,9.0,South,4.6,-,N/A,,Clear,190,2013-05-11 14:56:00
10:58 AM,-2.2,-7.6,78,29.99,9.0,South,4.6,-,N/A,Snow,Light Snow,190,2013-05-11 14:58:00
11:00 AM,-1,-8,61,30.00,10,South,4.6,,,Snow,Light Snow,190,2013-05-11 15:00:00
11:00 AM,-2.2,-7.6,78,29.99,9.0,South,4.6,-,N/A,Snow,Light Snow,180,2013-05-11 15:00:00
11:44 AM,-0.4,-7.6,72,30.00,9.0,South,4.6,-,N/A,,Clear,170,2013-05-11 15:44:00
11:46 AM,-0.4,-5.8,78,30.00,9.0,South,4.6,-,N/A,Snow,Light Snow,170,2013-05-11 15:46:00
12:00 PM,-0.4,-5.8,78,29.99,9.0,South,4.6,-,N/A,Snow,Light Snow,170,2013-05-11 16:00:00
1:00 PM,1.4,-5.8,72,30.00,9.0,SW,4.6,-,N/A,Snow,Light Snow,220,2013-05-11 17:00:00
1:07 PM,1.4,-5.8,72,30.00,9.0,SW,4.6,-,N/A,,Clear,220,2013-05-11 17:07:00
1:32 PM,1.4,-4.0,78,30.00,9.0,SSW,4.6,-,N/A,Snow,Light Snow,200,2013-05-11 17:32:00
2:00 PM,1,-5,65,30.00,10,WSW,4.6,,,Snow,Light Snow,240,2013-05-11 18:00:00
2:00 PM,1.4,-5.8,72,30.00,15.0,SW,4.6,-,N/A,,Partly Cloudy,230,2013-05-11 18:00:00
3:00 PM,1.4,-4.0,78,30.01,15.0,SW,6.9,-,N/A,Snow,Light Snow,230,2013-05-11 19:00:00
4:00 PM,1.4,-4.0,78,30.01,15.0,WSW,5.8,-,N/A,Snow,Light Snow,250,2013-05-11 20:00:00
5:00 PM,2,-4,64,30.02,10,SW,5.8,,,Snow,Light Snow,230,2013-05-11 21:00:00
5:00 PM,1.4,-4.0,78,30.02,10.0,SW,6.9,-,N/A,Snow,Light Snow,220,2013-05-11 21:00:00
5:18 PM,1.4,-4.0,78,30.02,5.0,WSW,4.6,-,N/A,Snow,Light Snow,240,2013-05-11 21:18:00
5:30 PM,1.4,-4.0,78,30.03,7.0,WSW,4.6,-,N/A,Snow,Light Snow,250,2013-05-11 21:30:00
6:00 PM,1.4,-4.0,78,30.03,9.0,SW,5.8,-,N/A,Snow,Light Snow,220,2013-05-11 22:00:00
6:49 PM,1.4,-4.0,78,30.04,5.0,WSW,4.6,-,N/A,Snow,Light Snow,250,2013-05-11 22:49:00
7:00 PM,1.4,-4.0,78,30.04,3.0,WSW,4.6,-,N/A,Snow,Light Snow,250,2013-05-11 23:00:00
7:09 PM,1.4,-4.0,78,30.04,6.0,WSW,5.8,-,N/A,Snow,Light Snow,250,2013-05-11 23:09:00
7:19 PM,1.4,-4.0,78,30.04,5.0,WSW,5.8,-,N/A,Snow,Light Snow,240,2013-05-11 23:19:00
7:20 PM,1.4,-4.0,78,30.04,5.0,WSW,5.8,-,N/A,Snow,Light Snow,240,2013-05-11 23:20:00
7:24 PM,1.4,-4.0,78,30.04,4.0,WSW,5.8,-,N/A,Snow,Light Snow,250,2013-05-11 23:24:00
7:34 PM,1.4,-4.0,78,30.04,6.0,WSW,5.8,-,N/A,Snow,Light Snow,240,2013-05-11 23:34:00
7:45 PM,1.4,-4.0,78,30.04,5.0,SW,5.8,-,N/A,Snow,Light Snow,230,2013-05-11 23:45:00
7:51 PM,1.4,-4.0,78,30.04,2.5,WSW,4.6,-,N/A,Snow,Light Snow,240,2013-05-11 23:51:00
7:55 PM,1.4,-4.0,78,30.04,3.0,WSW,4.6,-,N/A,Snow,Light Snow,240,2013-05-11 23:55:00
8:00 PM,0,-4,75,30.04,6,WSW,4.6,,,Snow,Light Snow,240,2013-05-12 00:00:00
8:00 PM,1.4,-4.0,78,30.04,6.0,SW,4.6,-,N/A,Snow,Light Snow,230,2013-05-12 00:00:00
9:00 PM,-4.0,-7.6,85,30.05,9.0,South,4.6,-,N/A,Snow,Light Snow,170,2013-05-12 01:00:00
9:50 PM,-4.0,-7.6,85,30.05,9.0,South,5.8,-,N/A,Snow,Light Snow,170,2013-05-12 01:50:00
9:58 PM,-5.8,-9.4,84,30.05,9.0,SSE,5.8,-,N/A,Snow,Light Snow,160,2013-05-12 01:58:00
10:00 PM,-5.8,-9.4,84,30.05,9.0,SSE,5.8,-,N/A,Snow,Light Snow,160,2013-05-12 02:00:00
11:00 PM,-4,-9,68,30.05,10,South,5.8,,,Snow,Light Snow,170,2013-05-12 03:00:00
11:00 PM,-4.0,-9.4,78,30.05,9.0,SSE,5.8,-,N/A,Snow,Light Snow,160,2013-05-12 03:00:00